Showing default

COSMOS 2588, 64095

Orbit data source: Space-Track

COSMOS 2588, 64095 is a payload satellite owned by TS VS RF (CIS) in LEO that was launched on Fri, 23 May 2025 UTC via a SOYUZ-2-1B launch vehicle from the Plesetsk Missile And Space Complex (PKMTR). Payload-class satellites include a variety of spacecraft equipped with specific instruments for various scientific and technological missions. These include communications satellites like Starlink; space stations such as the ISS; scientific satellites like the Hubble; Earth observation satellites from companies like Planet Labs, Umbra, and HawkEye 360; GPS; miniature CubeSats for education and research; and military/defense satellites.

Loading next visibility...
Identifier
64095, 2025-109A
Orbit
LEO
Country
Flag of CISCIS
Related business
Manufacturer
Lavochkin
Mission
Operational Defense Imaging
Bus & Motor
KARAT-200, Unknown motor
Mass
~500 kg wet, ~500 kg dry
Launch date (UTC)
2025-05-23 (4 months ago)
Launch vehicle
SOYUZ-2-1B
Launch site
Plesetsk Missile And Space Complex (PKMTR)
Object type
Payload
Rocket body
Debris
Shape & HBR
Cyl + 2 Pan, 1.5 m
Radar Cross Section
3.727 m², Large (>1 m²)

Expand to show TLE details & history
Last TLE update: 6 days ago

TLE from 6 days ago
0 COSMOS 2588
1 64095U 25109A   25254.70426781  .00008207  00000-0  29048-3 0  9997
2 64095  72.9707 119.0458 0004897 248.0276 112.0399 15.29315878 17049
Epoch: 2025-09-11T16:54Z
TLE epoch observation values (Epoch: 2025-09-11T16:54:08.738Z)
Latitude
-0.00009°
Longitude
-125.45315°
Altitude
481.776 km
Speed
7.624 km/s
True Right ascension
07h 56m 10s
True Declination
0° 00' 00"
Sunlit
Object was in daylight at epoch
Visualization orbit readout
Latitude
Unknown
Longitude
Unknown
Altitude
Unknown
Speed
Unknown
Apparent Right ascension
Unknown
Apparent Declination
Unknown
Sunlit
N/A
Visualization observer readout
Local Sidereal Time
12:32:33
Azimuth
Unknown
Elevation
Unknown
Doppler factor
Unknown
Orbital elements
Apogee altitude
478.832 km
Perigee altitude
472.119 km
Semi-major axis
6,853.613 km
Eccentricity
0.00049
Inclination
72.9707°
RAAN
119.0458°
Arg. of periapsis
248.0276°
True anomaly
112.0919°
Mean anomaly
112.0399°
Eccentric anomaly
112.0659°
Mean motion
3.82529 °/min
Orbital period
94.11 mins
BSTAR
0.00029048
Loading maneuver chart data...
Computing Atmospheric mass density...
Loading historical data...
Loading historical data...
Loading historical data...
Loading historical data...
Loading historical data...
Loading historical data...
Loading historical data...
Other satellites on launch #109 in the year 2025 (2025-05-23 UTC)

Documentation

Showing up to 5 results
|